Location: Newark
(51.2625°N, 13.3939°E)
Time: 01:15:23
(UTC+00:00)

Transit 2A Rocket - Pass Details

Date: 22 January 2021
Orbit: 594 x 909 km, 66.7° (Epoch: 03 March)

Event Time Altitude Azimuth Distance (km) Brightness Sun altitude
Rises 17:35:40 0° 319° (NW) 3,039 8.5 -17.8°
Reaches altitude 10° 17:38:52 10° 341° (NNW) 2,064 7.4 -18.3°
Enters shadow 17:41:45 16° 20° (NNE) 1,637 6.4 -18.7°
